Time,TemperatureF,DewpointF,PressureIn,WindDirection,WindDirectionDegrees,WindSpeedMPH,WindSpeedGustMPH,Humidity,HourlyPrecipIn,Conditions,Clouds,dailyrainin,SolarRadiationWatts/m^2,SoftwareType,DateUTC
2013-05-02 00:10:00,67.4,65.0,30.04,North,355,5.0,13.0,92,0.00,,,0.00,0,weatherlink.com 1.10,2013-05-02 04:10:00,
2013-05-02 00:25:00,67.4,65.0,30.04,NNE,20,9.0,14.0,92,0.00,,,0.00,0,weatherlink.com 1.10,2013-05-02 04:25:00,
2013-05-02 00:40:00,67.4,65.0,30.03,ENE,77,1.0,16.0,92,0.00,,,0.00,0,weatherlink.com 1.10,2013-05-02 04:40:00,
2013-05-02 00:55:00,67.5,66.0,30.02,NE,51,4.0,13.0,93,0.00,,,0.00,0,weatherlink.com 1.10,2013-05-02 04:55:00,
2013-05-02 01:10:00,67.7,66.0,30.02,NE,35,4.0,18.0,93,0.00,,,0.00,0,weatherlink.com 1.10,2013-05-02 05:10:00,
2013-05-02 01:25:00,67.9,66.0,30.01,NNE,17,8.0,15.0,93,0.00,,,0.00,0,weatherlink.com 1.10,2013-05-02 05:25:00,
2013-05-02 01:40:00,68.0,66.0,30.00,NE,40,6.0,13.0,93,0.00,,,0.00,0,weatherlink.com 1.10,2013-05-02 05:40:00,
2013-05-02 01:55:00,67.9,66.0,30.00,NE,35,7.0,14.0,94,0.00,,,0.00,0,weatherlink.com 1.10,2013-05-02 05:55:00,
2013-05-02 02:10:00,67.8,66.0,30.00,NE,44,4.0,8.0,94,0.00,,,0.00,0,weatherlink.com 1.10,2013-05-02 06:10:00,
2013-05-02 02:25:00,67.9,66.0,29.99,NE,42,5.0,9.0,94,0.00,,,0.00,0,weatherlink.com 1.10,2013-05-02 06:25:00,
2013-05-02 02:40:00,67.9,66.0,29.99,ENE,57,5.0,9.0,94,0.01,,,0.01,0,weatherlink.com 1.10,2013-05-02 06:40:00,
2013-05-02 02:55:00,67.8,66.0,29.98,NNE,27,5.0,10.0,95,0.01,,,0.01,0,weatherlink.com 1.10,2013-05-02 06:55:00,
2013-05-02 03:10:00,67.9,67.0,29.97,ENE,57,4.0,14.0,95,0.01,,,0.01,0,weatherlink.com 1.10,2013-05-02 07:10:00,
2013-05-02 03:25:00,68.0,67.0,29.97,ENE,59,6.0,11.0,95,0.01,,,0.01,0,weatherlink.com 1.10,2013-05-02 07:25:00,
2013-05-02 03:40:00,68.1,67.0,29.96,NNE,24,3.0,13.0,95,0.00,,,0.01,0,weatherlink.com 1.10,2013-05-02 07:40:00,
2013-05-02 03:55:00,68.1,67.0,29.97,NE,49,6.0,9.0,95,0.00,,,0.01,0,weatherlink.com 1.10,2013-05-02 07:55:00,
2013-05-02 04:10:00,68.3,67.0,29.97,NE,44,2.0,8.0,95,0.00,,,0.01,0,weatherlink.com 1.10,2013-05-02 08:10:00,
2013-05-02 04:25:00,68.6,67.0,29.97,ENE,58,0.0,10.0,94,0.00,,,0.01,0,weatherlink.com 1.10,2013-05-02 08:25:00,
2013-05-02 04:40:00,68.8,67.0,29.96,NE,36,2.0,6.0,94,0.00,,,0.01,0,weatherlink.com 1.10,2013-05-02 08:40:00,
2013-05-02 04:55:00,68.8,67.0,29.96,NE,55,0.0,7.0,94,0.00,,,0.01,0,weatherlink.com 1.10,2013-05-02 08:55:00,
2013-05-02 05:10:00,68.8,67.0,29.96,NE,55,3.0,10.0,94,0.00,,,0.01,0,weatherlink.com 1.10,2013-05-02 09:10:00,
2013-05-02 05:25:00,68.6,67.0,29.95,NE,54,0.0,7.0,93,0.00,,,0.01,0,weatherlink.com 1.10,2013-05-02 09:25:00,
2013-05-02 05:40:00,68.8,67.0,29.95,ENE,69,0.0,6.0,95,0.00,,,0.01,0,weatherlink.com 1.10,2013-05-02 09:40:00,
2013-05-02 05:55:00,68.9,68.0,29.95,ENE,69,0.0,5.0,95,0.00,,,0.01,0,weatherlink.com 1.10,2013-05-02 09:55:00,
2013-05-02 06:10:00,69.1,67.0,29.95,ENE,59,2.0,8.0,94,0.00,,,0.01,0,weatherlink.com 1.10,2013-05-02 10:10:00,
2013-05-02 06:25:00,69.4,68.0,29.96,East,90,4.0,12.0,94,0.00,,,0.01,0,weatherlink.com 1.10,2013-05-02 10:25:00,
2013-05-02 06:40:00,69.9,68.0,29.96,ENE,63,5.0,13.0,94,0.00,,,0.01,0,weatherlink.com 1.10,2013-05-02 10:40:00,
2013-05-02 06:55:00,70.0,68.0,29.97,East,90,6.0,11.0,94,0.00,,,0.01,0,weatherlink.com 1.10,2013-05-02 10:55:00,
2013-05-02 07:10:00,69.6,68.0,29.97,ESE,106,2.0,10.0,94,0.01,,,0.02,0,weatherlink.com 1.10,2013-05-02 11:10:00,
2013-05-02 07:25:00,69.3,68.0,29.97,ESE,111,6.0,12.0,95,0.02,,,0.03,11,weatherlink.com 1.10,2013-05-02 11:25:00,
2013-05-02 07:40:00,69.3,68.0,29.97,East,92,7.0,11.0,95,0.03,,,0.04,14,weatherlink.com 1.10,2013-05-02 11:40:00,
2013-05-02 07:55:00,69.3,68.0,29.97,ENE,61,3.0,13.0,95,0.03,,,0.04,12,weatherlink.com 1.10,2013-05-02 11:55:00,
2013-05-02 08:10:00,69.2,68.0,29.97,NNE,17,3.0,12.0,94,0.02,,,0.04,18,weatherlink.com 1.10,2013-05-02 12:10:00,
2013-05-02 08:25:00,69.1,67.0,29.98,ESE,103,6.0,15.0,93,0.01,,,0.04,32,weatherlink.com 1.10,2013-05-02 12:25:00,
2013-05-02 08:40:00,69.0,67.0,29.98,ENE,78,2.0,13.0,94,0.00,,,0.04,33,weatherlink.com 1.10,2013-05-02 12:40:00,
2013-05-02 08:55:00,69.2,68.0,29.98,East,86,7.0,13.0,94,0.00,,,0.04,21,weatherlink.com 1.10,2013-05-02 12:55:00,
2013-05-02 09:10:00,69.4,68.0,29.99,NE,35,2.0,11.0,95,0.02,,,0.06,16,weatherlink.com 1.10,2013-05-02 13:10:00,
2013-05-02 09:26:00,69.3,68.0,30.00,SSE,150,5.0,11.0,96,0.05,,,0.09,16,weatherlink.com 1.10,2013-05-02 13:26:00,
2013-05-02 09:41:00,69.2,68.0,30.00,East,88,5.0,11.0,96,0.09,,,0.13,16,weatherlink.com 1.10,2013-05-02 13:41:00,
2013-05-02 09:56:00,69.2,68.0,29.99,East,91,9.0,11.0,96,0.14,,,0.18,18,weatherlink.com 1.10,2013-05-02 13:56:00,
2013-05-02 10:11:00,69.1,68.0,29.99,ESE,103,7.0,12.0,96,0.16,,,0.22,19,weatherlink.com 1.10,2013-05-02 14:11:00,
2013-05-02 10:26:00,68.9,68.0,29.99,East,88,4.0,14.0,96,0.18,,,0.27,16,weatherlink.com 1.10,2013-05-02 14:26:00,
2013-05-02 10:41:00,68.9,68.0,29.99,SE,133,1.0,17.0,96,0.30,,,0.43,21,weatherlink.com 1.10,2013-05-02 14:41:00,
2013-05-02 10:56:00,68.2,67.0,30.00,East,92,3.0,8.0,96,0.29,,,0.47,32,weatherlink.com 1.10,2013-05-02 14:56:00,
2013-05-02 11:11:00,67.9,67.0,30.01,East,80,2.0,6.0,97,0.30,,,0.52,42,weatherlink.com 1.10,2013-05-02 15:11:00,
2013-05-02 11:26:00,67.9,67.0,30.01,NE,41,1.0,12.0,97,0.29,,,0.56,39,weatherlink.com 1.10,2013-05-02 15:26:00,
2013-05-02 11:41:00,67.3,66.0,30.02,ENE,71,3.0,9.0,96,0.18,,,0.61,30,weatherlink.com 1.10,2013-05-02 15:41:00,
2013-05-02 11:56:00,67.0,66.0,30.02,NE,48,9.0,15.0,96,0.17,,,0.65,63,weatherlink.com 1.10,2013-05-02 15:56:00,
2013-05-02 12:11:00,67.0,66.0,30.01,ENE,61,1.0,15.0,97,0.22,,,0.74,56,weatherlink.com 1.10,2013-05-02 16:11:00,
2013-05-02 12:26:00,66.9,66.0,30.01,East,92,8.0,12.0,96,0.21,,,0.77,79,weatherlink.com 1.10,2013-05-02 16:26:00,
2013-05-02 12:41:00,67.0,66.0,30.01,East,88,11.0,16.0,96,0.19,,,0.81,86,weatherlink.com 1.10,2013-05-02 16:41:00,
2013-05-02 12:56:00,67.2,66.0,30.00,ENE,58,4.0,14.0,97,0.20,,,0.85,132,weatherlink.com 1.10,2013-05-02 16:56:00,
2013-05-02 13:11:00,67.2,66.0,30.00,East,101,2.0,14.0,96,0.14,,,0.88,91,weatherlink.com 1.10,2013-05-02 17:11:00,
2013-05-02 13:26:00,67.2,66.0,29.99,ESE,115,4.0,11.0,97,0.23,,,1.01,91,weatherlink.com 1.10,2013-05-02 17:26:00,
2013-05-02 13:41:00,67.2,66.0,29.99,ESE,109,0.0,10.0,97,0.23,,,1.05,107,weatherlink.com 1.10,2013-05-02 17:41:00,
2013-05-02 13:56:00,67.0,66.0,29.99,East,99,1.0,10.0,97,0.30,,,1.15,69,weatherlink.com 1.10,2013-05-02 17:56:00,
2013-05-02 14:11:00,66.9,66.0,29.98,East,86,2.0,8.0,97,0.46,,,1.34,100,weatherlink.com 1.10,2013-05-02 18:11:00,
2013-05-02 14:26:00,67.0,66.0,29.99,ESE,103,2.0,7.0,97,0.52,,,1.54,56,weatherlink.com 1.10,2013-05-02 18:26:00,
2013-05-02 14:41:00,67.1,66.0,29.99,East,91,2.0,9.0,97,0.63,,,1.68,49,weatherlink.com 1.10,2013-05-02 18:41:00,
2013-05-02 14:56:00,67.4,67.0,29.98,ESE,102,1.0,10.0,98,0.69,,,1.85,58,weatherlink.com 1.10,2013-05-02 18:56:00,
2013-05-02 15:11:00,67.5,67.0,29.97,SE,144,6.0,14.0,97,0.61,,,1.96,74,weatherlink.com 1.10,2013-05-02 19:11:00,
2013-05-02 15:26:00,67.9,67.0,29.96,SW,216,4.0,13.0,98,0.45,,,2.01,93,weatherlink.com 1.10,2013-05-02 19:26:00,
2013-05-02 15:41:00,68.6,68.0,29.96,ENE,69,10.0,12.0,98,0.34,,,2.03,109,weatherlink.com 1.10,2013-05-02 19:41:00,
2013-05-02 15:56:00,68.8,68.0,29.95,ESE,109,6.0,13.0,98,0.20,,,2.06,77,weatherlink.com 1.10,2013-05-02 19:56:00,
2013-05-02 16:11:00,68.8,68.0,29.95,East,88,7.0,13.0,97,0.12,,,2.08,30,weatherlink.com 1.10,2013-05-02 20:11:00,
2013-05-02 16:26:00,68.6,68.0,29.95,East,101,1.0,17.0,97,0.16,,,2.17,93,weatherlink.com 1.10,2013-05-02 20:26:00,
2013-05-02 16:41:00,68.8,68.0,29.94,East,90,3.0,14.0,97,0.18,,,2.21,158,weatherlink.com 1.10,2013-05-02 20:41:00,
2013-05-02 16:56:00,68.6,68.0,29.94,East,91,4.0,10.0,96,0.17,,,2.23,65,weatherlink.com 1.10,2013-05-02 20:56:00,
2013-05-02 17:11:00,68.4,67.0,29.94,East,98,3.0,14.0,96,0.17,,,2.25,62,weatherlink.com 1.10,2013-05-02 21:11:00,
2013-05-02 17:26:00,67.9,67.0,29.94,ESE,109,9.0,16.0,95,0.12,,,2.29,28,weatherlink.com 1.10,2013-05-02 21:26:00,
2013-05-02 17:41:00,67.6,67.0,29.94,ENE,67,3.0,13.0,96,0.12,,,2.33,65,weatherlink.com 1.10,2013-05-02 21:41:00,
2013-05-02 17:56:00,67.9,67.0,29.93,East,79,0.0,11.0,97,0.12,,,2.35,111,weatherlink.com 1.10,2013-05-02 21:56:00,
2013-05-02 18:11:00,68.0,67.0,29.93,ESE,121,2.0,10.0,96,0.14,,,2.39,37,weatherlink.com 1.10,2013-05-02 22:11:00,
2013-05-02 18:26:00,68.0,67.0,29.93,East,88,0.0,11.0,96,0.15,,,2.44,11,weatherlink.com 1.10,2013-05-02 22:26:00,
2013-05-02 18:41:00,67.4,66.0,29.93,ENE,61,3.0,18.0,95,0.22,,,2.55,9,weatherlink.com 1.10,2013-05-02 22:41:00,
2013-05-02 18:56:00,67.5,67.0,29.93,ENE,70,8.0,13.0,97,0.26,,,2.61,0,weatherlink.com 1.10,2013-05-02 22:56:00,
2013-05-02 19:11:00,67.0,66.0,29.93,East,84,5.0,21.0,96,0.42,,,2.81,12,weatherlink.com 1.10,2013-05-02 23:11:00,
2013-05-02 19:26:00,67.1,66.0,29.92,NE,51,11.0,21.0,96,0.43,,,2.87,5,weatherlink.com 1.10,2013-05-02 23:26:00,
2013-05-02 19:41:00,67.3,67.0,29.92,East,98,4.0,17.0,97,0.37,,,2.92,0,weatherlink.com 1.10,2013-05-02 23:41:00,
2013-05-02 19:57:00,67.5,66.0,29.92,ENE,57,7.0,21.0,96,0.31,,,2.96,0,weatherlink.com 1.10,2013-05-02 23:57:00,
2013-05-02 20:12:00,67.6,67.0,29.93,ENE,59,5.0,16.0,96,0.15,,,2.96,0,weatherlink.com 1.10,2013-05-03 00:12:00,
2013-05-02 20:27:00,67.6,66.0,29.93,East,80,13.0,17.0,94,0.10,,,2.97,0,weatherlink.com 1.10,2013-05-03 00:27:00,
2013-05-02 20:42:00,67.4,66.0,29.93,East,84,4.0,19.0,94,0.06,,,2.99,0,weatherlink.com 1.10,2013-05-03 00:42:00,
2013-05-02 20:57:00,67.4,65.0,29.93,East,92,11.0,27.0,93,0.03,,,2.99,0,weatherlink.com 1.10,2013-05-03 00:57:00,
2013-05-02 21:12:00,67.4,66.0,29.93,ENE,76,2.0,16.0,95,0.03,,,2.99,0,weatherlink.com 1.10,2013-05-03 01:12:00,
2013-05-02 21:27:00,67.6,66.0,29.93,NE,55,7.0,17.0,95,0.03,,,3.00,0,weatherlink.com 1.10,2013-05-03 01:27:00,
2013-05-02 21:42:00,67.6,67.0,29.93,ENE,70,4.0,17.0,96,0.02,,,3.01,0,weatherlink.com 1.10,2013-05-03 01:42:00,
2013-05-02 21:57:00,67.8,66.0,29.93,East,84,3.0,16.0,95,0.05,,,3.04,0,weatherlink.com 1.10,2013-05-03 01:57:00,
2013-05-02 22:12:00,67.6,67.0,29.93,ENE,73,4.0,13.0,96,0.14,,,3.13,0,weatherlink.com 1.10,2013-05-03 02:12:00,
2013-05-02 22:27:00,67.2,65.0,29.94,ENE,64,2.0,19.0,93,0.18,,,3.18,0,weatherlink.com 1.10,2013-05-03 02:27:00,
2013-05-02 22:42:00,66.9,65.0,29.94,East,94,8.0,17.0,94,0.21,,,3.22,0,weatherlink.com 1.10,2013-05-03 02:42:00,
2013-05-02 22:57:00,66.8,65.0,29.94,East,92,7.0,14.0,95,0.22,,,3.26,0,weatherlink.com 1.10,2013-05-03 02:57:00,
2013-05-02 23:12:00,66.8,66.0,29.94,ENE,68,5.0,17.0,96,0.19,,,3.33,0,weatherlink.com 1.10,2013-05-03 03:12:00,
2013-05-02 23:27:00,66.9,66.0,29.93,East,95,4.0,17.0,96,0.23,,,3.41,0,weatherlink.com 1.10,2013-05-03 03:27:00,
2013-05-02 23:42:00,66.9,66.0,29.93,SSE,163,5.0,21.0,96,0.24,,,3.46,0,weatherlink.com 1.10,2013-05-03 03:42:00,
2013-05-02 23:57:00,66.1,65.0,29.93,East,100,6.0,20.0,95,0.21,,,3.48,0,weatherlink.com 1.10,2013-05-03 03:57:00,